カタリナ彗星

C/2010 L3 ( Catalina )

English version
Home page
Updated on September 14, 2013

---------------------------------------------------------------------

・ プロフィール

発見日 2010年6月15日
発見光度 19.6等
発見者 Catalina Sky Survey

・ 写真集

・ 軌道要素

Epoch 2010 Nov. 20.0 TT = JDT 2455520.5
T 2010 Nov. 10.46605 TT                                 MPC
q   9.8828522            (2000.0)            P               Q
z  +0.0000894      Peri.  121.77418     -0.29822656     -0.73870940
 +/-0.0000023      Node    38.27589     -0.76313978     -0.19583423
e   0.9991161      Incl.  102.63074     +0.57330498     -0.64494757
From 119 observations 2010 June 15-2013 Apr. 8, mean residual 0".5.

・ 光度変化

        m1 = 4.5 + 5 logΔ + 10.0 log r

---------------------------------------------------------------------

軌道要素はM.P.E.C. 2013-H38に掲載されたものです。
光度グラフはComet for Windowsで作成したものです。

---------------------------------------------------------------------

Copyright(C) Seiichi Yoshida (comet@aerith.net). All rights reserved.